View from above orbital plane
|
View from above satellite
|
Ground track
|
The orbit data is extracted from the following two-line orbital elements,
1 46U 60007B 21066.24328791 .00000079 00000-0 38335-4 0 9996
2 46 66.6901 56.4296 0217184 294.5180 63.3422 14.49374001177181
Epoch (UTC): | 07 March 2021 05:50:20 |
Eccentricity: | 0.0217184 |
inclination: | 66.6901° |
perigee height: | 573 km |
apogee height: | 882 km |
right ascension of ascending node: | 56.4296° |
argument of perigee: | 294.5180° |
revolutions per day: | 14.49374001 |
mean anomaly at epoch: | 63.3422° |
orbit number at epoch: | 17718 |
The dashed part of the orbit path shows where the satellite is in the earth's shadow,
|
|